C2018 KVQQ-KORL

Flight info

Callsign C2018
Flight time 0h 47m
Altitude 9000
Route MMKAY T210 KIZER
Aircraft C30J/M-SDE2E3FGRY/H

Departure

Time 2026-05-04 22:28
Airport Cecil Airport (KVQQ)

Arrival

Time 2026-05-04 23:15
Airport Orlando Executive Airport (KORL)
Time Latitude Longitude Altitude Speed Heading
2026-05-04 22:14 30.22051 -81.88925 83 ft 0 kts
2026-05-04 22:24 30.22057 -81.88932 86 ft 2 kts 277°
2026-05-04 22:24 30.22037 -81.88966 84 ft 5 kts 251°
2026-05-04 22:25 30.22024 -81.89006 83 ft 6 kts 238°
2026-05-04 22:25 30.21976 -81.89030 84 ft 5 kts 180°
2026-05-04 22:25 30.21931 -81.89036 85 ft 7 kts 195°
2026-05-04 22:26 30.21900 -81.89088 86 ft 10 kts 252°
2026-05-04 22:26 30.21853 -81.89139 85 ft 14 kts 189°
2026-05-04 22:26 30.21845 -81.89140 85 ft 0 kts 188°
2026-05-04 22:27 30.21815 -81.89144 84 ft 9 kts 183°
2026-05-04 22:27 30.21766 -81.89102 86 ft 16 kts 105°
2026-05-04 22:27 30.21764 -81.88647 81 ft 108 kts 91°
2026-05-04 22:27 30.21785 -81.87515 308 ft 162 kts 92°
2026-05-04 22:28 30.21494 -81.86244 1167 ft 168 kts 128°
2026-05-04 22:28 30.20524 -81.85488 2256 ft 171 kts 155°
2026-05-04 22:28 30.19378 -81.84999 3238 ft 178 kts 158°
2026-05-04 22:28 30.18241 -81.84468 4323 ft 177 kts 154°
2026-05-04 22:29 30.17103 -81.83841 5306 ft 184 kts 153°
2026-05-04 22:29 30.15942 -81.83116 6229 ft 194 kts 153°
2026-05-04 22:29 30.14754 -81.82297 7117 ft 202 kts 151°
2026-05-04 22:29 30.13566 -81.81409 8107 ft 201 kts 148°
2026-05-04 22:30 30.12386 -81.80478 8895 ft 211 kts 148°
2026-05-04 22:30 30.11187 -81.79506 9010 ft 212 kts 147°
2026-05-04 22:30 30.10049 -81.78557 9001 ft 192 kts 147°
2026-05-04 22:30 30.08979 -81.77659 9007 ft 190 kts 147°
2026-05-04 22:31 30.07909 -81.76761 9016 ft 191 kts 147°
2026-05-04 22:31 30.06835 -81.75856 9027 ft 191 kts 147°
2026-05-04 22:31 30.05765 -81.74951 9022 ft 191 kts 147°
2026-05-04 22:31 30.04695 -81.74041 9024 ft 190 kts 146°
2026-05-04 22:32 30.03630 -81.73131 9015 ft 190 kts 146°
2026-05-04 22:32 30.02564 -81.72219 9027 ft 192 kts 147°
2026-05-04 22:32 30.01487 -81.71297 9018 ft 193 kts 147°
2026-05-04 22:32 30.00421 -81.70379 9022 ft 190 kts 147°
2026-05-04 22:33 29.99373 -81.69477 9019 ft 190 kts 147°
2026-05-04 22:33 29.98305 -81.68560 9025 ft 192 kts 147°
2026-05-04 22:33 29.97233 -81.67638 9019 ft 191 kts 146°
2026-05-04 22:33 29.96178 -81.66728 9018 ft 189 kts 146°
2026-05-04 22:34 29.95115 -81.65814 9026 ft 191 kts 146°
2026-05-04 22:34 29.94047 -81.64898 9030 ft 192 kts 146°
2026-05-04 22:34 29.92978 -81.63978 9028 ft 192 kts 147°
2026-05-04 22:34 29.91897 -81.63052 9026 ft 195 kts 147°
2026-05-04 22:35 29.90814 -81.62122 9028 ft 193 kts 146°
2026-05-04 22:35 29.89743 -81.61202 9031 ft 192 kts 146°
2026-05-04 22:35 29.88665 -81.60277 9028 ft 195 kts 147°
2026-05-04 22:35 29.87573 -81.59341 9026 ft 195 kts 147°
2026-05-04 22:36 29.86484 -81.58407 9032 ft 195 kts 147°
2026-05-04 22:36 29.85396 -81.57474 9030 ft 195 kts 147°
2026-05-04 22:36 29.84324 -81.56555 9030 ft 195 kts 148°
2026-05-04 22:36 29.83236 -81.55624 9025 ft 194 kts 148°
2026-05-04 22:37 29.82152 -81.54695 9035 ft 194 kts 147°
2026-05-04 22:37 29.81063 -81.53764 9041 ft 194 kts 147°
2026-05-04 22:37 29.79980 -81.52839 9033 ft 194 kts 147°
2026-05-04 22:37 29.78913 -81.51927 9028 ft 192 kts 147°
2026-05-04 22:38 29.77842 -81.51010 9036 ft 192 kts 147°
2026-05-04 22:38 29.76759 -81.50086 9033 ft 194 kts 147°
2026-05-04 22:38 29.75681 -81.49166 9035 ft 192 kts 147°
2026-05-04 22:38 29.74609 -81.48252 9031 ft 191 kts 147°
2026-05-04 22:39 29.73537 -81.47337 9033 ft 194 kts 147°
2026-05-04 22:39 29.72449 -81.46410 9040 ft 194 kts 147°
2026-05-04 22:39 29.71378 -81.45497 9031 ft 194 kts 147°
2026-05-04 22:39 29.70276 -81.44584 9033 ft 194 kts 153°
2026-05-04 22:40 29.69062 -81.43987 9034 ft 187 kts 171°
2026-05-04 22:40 29.67788 -81.43766 9038 ft 184 kts 179°
2026-05-04 22:40 29.66503 -81.43654 9037 ft 185 kts 180°
2026-05-04 22:40 29.65214 -81.43558 9033 ft 186 kts 181°
2026-05-04 22:41 29.63941 -81.43464 9028 ft 185 kts 181°
2026-05-04 22:41 29.62664 -81.43362 9034 ft 185 kts 181°
2026-05-04 22:41 29.61378 -81.43257 9031 ft 184 kts 180°
2026-05-04 22:41 29.60096 -81.43145 9030 ft 185 kts 180°
2026-05-04 22:42 29.58806 -81.43028 9037 ft 186 kts 180°
2026-05-04 22:42 29.57513 -81.42913 9030 ft 185 kts 179°
2026-05-04 22:42 29.56226 -81.42796 9030 ft 186 kts 180°
2026-05-04 22:42 29.54939 -81.42679 9028 ft 185 kts 179°
2026-05-04 22:43 29.53671 -81.42563 9030 ft 184 kts 180°
2026-05-04 22:43 29.52392 -81.42446 9036 ft 185 kts 180°
2026-05-04 22:43 29.51115 -81.42330 9025 ft 184 kts 180°
2026-05-04 22:43 29.49831 -81.42214 9034 ft 184 kts 180°
2026-05-04 22:44 29.48552 -81.42100 9031 ft 186 kts 179°
2026-05-04 22:44 29.47268 -81.41985 9034 ft 185 kts 179°
2026-05-04 22:44 29.45982 -81.41869 9036 ft 185 kts 180°
2026-05-04 22:44 29.44708 -81.41753 9025 ft 183 kts 179°
2026-05-04 22:45 29.43432 -81.41635 9030 ft 184 kts 180°
2026-05-04 22:45 29.40894 -81.41401 9028 ft 184 kts 180°
2026-05-04 22:45 29.39610 -81.41285 9030 ft 185 kts 180°
2026-05-04 22:46 29.38335 -81.41170 9027 ft 183 kts 179°
2026-05-04 22:46 29.37054 -81.41054 9029 ft 185 kts 179°
2026-05-04 22:46 29.35779 -81.40939 9028 ft 184 kts 180°
2026-05-04 22:46 29.34497 -81.40825 9042 ft 185 kts 179°
2026-05-04 22:47 29.33221 -81.40712 9021 ft 183 kts 179°
2026-05-04 22:47 29.31944 -81.40597 9027 ft 184 kts 180°
2026-05-04 22:47 29.30662 -81.40482 9031 ft 185 kts 180°
2026-05-04 22:47 29.29382 -81.40366 9029 ft 185 kts 180°
2026-05-04 22:48 29.28112 -81.40253 9015 ft 185 kts 179°
2026-05-04 22:48 29.26827 -81.40137 9027 ft 185 kts 179°
2026-05-04 22:48 29.25539 -81.40022 9016 ft 184 kts 180°
2026-05-04 22:48 29.24264 -81.39907 9016 ft 184 kts 180°
2026-05-04 22:49 29.23016 -81.39794 8896 ft 175 kts 180°
2026-05-04 22:49 29.21796 -81.39687 8486 ft 177 kts 179°
2026-05-04 22:49 29.20568 -81.39582 8096 ft 177 kts 179°
2026-05-04 22:49 29.19330 -81.39477 7687 ft 178 kts 180°
2026-05-04 22:50 29.18105 -81.39372 7320 ft 176 kts 178°
2026-05-04 22:50 29.16902 -81.39269 6953 ft 175 kts 177°
2026-05-04 22:50 29.15693 -81.39164 6583 ft 174 kts 176°
2026-05-04 22:50 29.14502 -81.39060 6239 ft 170 kts 176°
2026-05-04 22:51 29.13321 -81.38957 5829 ft 171 kts 175°
2026-05-04 22:51 29.12143 -81.38855 5477 ft 168 kts 175°
2026-05-04 22:51 29.10990 -81.38755 5120 ft 165 kts 174°
2026-05-04 22:51 29.09902 -81.38661 5004 ft 147 kts 174°
2026-05-04 22:52 29.08863 -81.38573 5017 ft 155 kts 174°
2026-05-04 22:52 29.07777 -81.38481 5024 ft 156 kts 174°
2026-05-04 22:52 29.06685 -81.38387 5017 ft 160 kts 174°
2026-05-04 22:52 29.05589 -81.38292 5009 ft 157 kts 174°
2026-05-04 22:53 29.04491 -81.38194 5017 ft 159 kts 174°
2026-05-04 22:53 29.03395 -81.38097 5013 ft 156 kts 174°
2026-05-04 22:53 29.02308 -81.38000 5012 ft 158 kts 174°
2026-05-04 22:53 29.01231 -81.37899 5009 ft 155 kts 174°
2026-05-04 22:54 29.00151 -81.37798 5012 ft 155 kts 174°
2026-05-04 22:54 28.99076 -81.37700 5014 ft 155 kts 174°
2026-05-04 22:54 28.97988 -81.37601 5013 ft 159 kts 174°
2026-05-04 22:54 28.96891 -81.37498 5011 ft 158 kts 173°
2026-05-04 22:55 28.95788 -81.37408 5010 ft 159 kts 173°
2026-05-04 22:55 28.94681 -81.37325 5014 ft 160 kts 174°
2026-05-04 22:55 28.93568 -81.37232 5008 ft 160 kts 174°
2026-05-04 22:55 28.92463 -81.37144 5012 ft 159 kts 174°
2026-05-04 22:56 28.91362 -81.37066 5008 ft 157 kts 175°
2026-05-04 22:56 28.90258 -81.36989 5006 ft 159 kts 174°
2026-05-04 22:56 28.89162 -81.36911 5008 ft 157 kts 174°
2026-05-04 22:56 28.88065 -81.36837 5010 ft 159 kts 175°
2026-05-04 22:57 28.86960 -81.36759 5005 ft 158 kts 174°
2026-05-04 22:57 28.85850 -81.36679 5013 ft 160 kts 173°
2026-05-04 22:57 28.84764 -81.36602 5005 ft 158 kts 174°
2026-05-04 22:57 28.83656 -81.36523 5005 ft 159 kts 174°
2026-05-04 22:58 28.82542 -81.36437 5006 ft 160 kts 174°
2026-05-04 22:58 28.81435 -81.36346 5005 ft 158 kts 173°
2026-05-04 22:58 28.80339 -81.36265 5004 ft 158 kts 175°
2026-05-04 22:58 28.79231 -81.36171 5007 ft 160 kts 172°
2026-05-04 22:59 28.78499 -81.36093 5007 ft 159 kts 172°
2026-05-04 22:59 28.77070 -81.35943 4927 ft 149 kts 172°
2026-05-04 22:59 28.76026 -81.35846 4547 ft 152 kts 176°
2026-05-04 22:59 28.75039 -81.36284 4146 ft 161 kts 223°
2026-05-04 23:00 28.74379 -81.37259 4008 ft 148 kts 226°
2026-05-04 23:00 28.73944 -81.37872 4025 ft 160 kts 226°
2026-05-04 23:00 28.73176 -81.38845 4040 ft 171 kts 224°
2026-05-04 23:00 28.72382 -81.39811 4005 ft 168 kts 223°
2026-05-04 23:01 28.71585 -81.40781 4005 ft 165 kts 223°
2026-05-04 23:01 28.70792 -81.41742 3999 ft 168 kts 223°
2026-05-04 23:01 28.69984 -81.42729 4004 ft 170 kts 223°
2026-05-04 23:01 28.69188 -81.43695 4006 ft 167 kts 223°
2026-05-04 23:02 28.68382 -81.44657 4007 ft 170 kts 224°
2026-05-04 23:02 28.67604 -81.45575 3975 ft 150 kts 223°
2026-05-04 23:02 28.66866 -81.46436 4025 ft 164 kts 223°
2026-05-04 23:02 28.66052 -81.47384 4012 ft 169 kts 223°
2026-05-04 23:03 28.65256 -81.48322 4002 ft 167 kts 222°
2026-05-04 23:03 28.64446 -81.49290 4003 ft 169 kts 222°
2026-05-04 23:03 28.63634 -81.50267 3998 ft 166 kts 224°
2026-05-04 23:03 28.62834 -81.51221 4001 ft 169 kts 222°
2026-05-04 23:04 28.62027 -81.52183 3995 ft 167 kts 223°
2026-05-04 23:04 28.61220 -81.53129 4000 ft 167 kts 223°
2026-05-04 23:04 28.60403 -81.54082 4003 ft 167 kts 223°
2026-05-04 23:04 28.59600 -81.55029 3997 ft 166 kts 221°
2026-05-04 23:05 28.58783 -81.55998 4005 ft 171 kts 222°
2026-05-04 23:05 28.57981 -81.56961 3997 ft 169 kts 223°
2026-05-04 23:05 28.57173 -81.57906 3984 ft 167 kts 217°
2026-05-04 23:05 28.56138 -81.58396 3998 ft 160 kts 183°
2026-05-04 23:06 28.55056 -81.58461 3867 ft 149 kts 175°
2026-05-04 23:06 28.54010 -81.58438 3388 ft 152 kts 172°
2026-05-04 23:06 28.52972 -81.58407 3050 ft 146 kts 172°
2026-05-04 23:06 28.51980 -81.58385 3012 ft 154 kts 173°
2026-05-04 23:07 28.50876 -81.58332 2998 ft 159 kts 173°
2026-05-04 23:07 28.49817 -81.58624 2985 ft 166 kts 213°
2026-05-04 23:07 28.49075 -81.59643 2999 ft 168 kts 236°
2026-05-04 23:07 28.48524 -81.60815 2998 ft 172 kts 241°
2026-05-04 23:08 28.48010 -81.62034 2997 ft 170 kts 243°
2026-05-04 23:08 28.47419 -81.63170 2985 ft 163 kts 217°
2026-05-04 23:08 28.46379 -81.63471 3004 ft 156 kts 161°
2026-05-04 23:08 28.45630 -81.62720 2999 ft 148 kts 107°
2026-05-04 23:09 28.45695 -81.61571 2996 ft 151 kts 72°
2026-05-04 23:09 28.46099 -81.60483 2986 ft 149 kts 66°
2026-05-04 23:09 28.46582 -81.59431 3002 ft 151 kts 63°
2026-05-04 23:09 28.47096 -81.58343 2992 ft 158 kts 66°
2026-05-04 23:10 28.47398 -81.57172 2933 ft 153 kts 79°
2026-05-04 23:10 28.47580 -81.55931 2790 ft 158 kts 81°
2026-05-04 23:10 28.47731 -81.54697 2381 ft 161 kts 82°
2026-05-04 23:10 28.47873 -81.53463 2060 ft 152 kts 83°
2026-05-04 23:11 28.48008 -81.52301 2005 ft 159 kts 82°
2026-05-04 23:11 28.48158 -81.51010 2006 ft 166 kts 80°
2026-05-04 23:11 28.48490 -81.49770 2000 ft 162 kts 71°
2026-05-04 23:11 28.48877 -81.48567 2003 ft 165 kts 70°
2026-05-04 23:12 28.49288 -81.47328 1999 ft 166 kts 72°
2026-05-04 23:12 28.49693 -81.46089 1998 ft 167 kts 70°
2026-05-04 23:12 28.50113 -81.44848 2016 ft 166 kts 70°
2026-05-04 23:12 28.50551 -81.43618 1923 ft 173 kts 69°
2026-05-04 23:13 28.51014 -81.42382 1715 ft 166 kts 69°
2026-05-04 23:13 28.51474 -81.41191 1471 ft 164 kts 68°
2026-05-04 23:13 28.51937 -81.40015 1293 ft 162 kts 68°
2026-05-04 23:13 28.52390 -81.38870 1073 ft 157 kts 69°
2026-05-04 23:14 28.52819 -81.37770 865 ft 149 kts 68°
2026-05-04 23:14 28.53231 -81.36722 692 ft 139 kts 67°
2026-05-04 23:14 28.53600 -81.35744 495 ft 128 kts 68°
2026-05-04 23:14 28.53961 -81.34820 312 ft 128 kts 69°
2026-05-04 23:15 28.54299 -81.33896 135 ft 117 kts 67°
2026-05-04 23:15 28.54579 -81.33151 120 ft 73 kts 68°
2026-05-04 23:15 28.54695 -81.32857 116 ft 7 kts 56°
2026-05-04 23:15 28.54740 -81.32808 115 ft 6 kts 359°
2026-05-04 23:16 28.54773 -81.32850 115 ft 9 kts 305°
2026-05-04 23:16 28.54786 -81.32872 116 ft 0 kts 303°
2026-05-04 23:16 28.54787 -81.32873 116 ft 0 kts 305°
2026-05-04 23:17 28.54788 -81.32875 116 ft 4 kts 306°
2026-05-04 23:17 28.54807 -81.32924 116 ft 13 kts 269°
2026-05-04 23:18 28.54770 -81.33035 117 ft 16 kts 248°
2026-05-04 23:18 28.54733 -81.33136 117 ft 16 kts 246°
2026-05-04 23:18 28.54680 -81.33275 115 ft 22 kts 249°
2026-05-04 23:18 28.54624 -81.33427 111 ft 18 kts 247°
2026-05-04 23:19 28.54584 -81.33530 114 ft 11 kts 247°
2026-05-04 23:19 28.54564 -81.33583 111 ft 4 kts 248°
2026-05-04 23:19 28.54564 -81.33584 111 ft 0 kts 246°
2026-05-04 23:21 28.54564 -81.33591 112 ft 1 kts 304°
2026-05-04 23:22 28.54585 -81.33605 113 ft 6 kts 319°
2026-05-04 23:22 28.54617 -81.33643 113 ft 8 kts 314°
2026-05-04 23:22 28.54654 -81.33690 113 ft 9 kts 312°
2026-05-04 23:22 28.54697 -81.33743 114 ft 2 kts 319°
2026-05-04 23:23 28.54740 -81.33767 116 ft 7 kts 313°
2026-05-04 23:23 28.54785 -81.33826 115 ft 10 kts 300°
2026-05-04 23:23 28.54818 -81.33850 119 ft 2 kts 336°
2026-05-04 23:23 28.54834 -81.33846 118 ft 0 kts 17°
2026-05-04 23:24 28.54833 -81.33837 116 ft 1 kts 121°
2026-05-04 23:24 28.54833 -81.33836 116 ft 0 kts 136°
2026-05-04 23:25 28.54832 -81.33836 116 ft 0 kts 136°